Weather History for Richmond Hanover County, VA

Change the Weather History Date:

Friday, October 12, 2012

  Actual Average Record
Temperature  
Mean Temperature 56 °F -  
Max Temperature 71 °F 69 °F 89 °F (1954)
Min Temperature 41 °F 46 °F 28 °F (1964)
Degree Days  
Heating Degree Days 9    
Growing Degree Days 6 (Base 50)    
Moisture  
Dew Point 41 °F    
Average Humidity 70    
Maximum Humidity 97    
Minimum Humidity 30    
Precipitation  
Precipitation 0.00 in - - ()
Sea Level Pressure  
Sea Level Pressure 30.24 in    
Wind  
Wind Speed 2 mph (NNW)    
Max Wind Speed 8 mph    
Max Gust Speed -    
Visibility 9 miles    
Events      
Averages and records for this station are not official NWS values.
T = Trace of Precipitation, MM = Missing Value Source: NWS Daily Summary

Daily Weather History Graph

Daily Weather History Graph

Search for Another Location

Airport:

Trip Planner

Search our weather history database for the weather conditions in past years. The results will help you decide how hot, cold, wet, or windy it might be!

Date:

Astronomy

Oct. 12, 2012 Rise Set
Actual Time 7:15 AM EDT 6:35 PM EDT
Civil Twilight 6:49 AM EDT 7:02 PM EDT
Nautical Twilight 6:18 AM EDT 7:32 PM EDT
Astronomical Twilight 5:48 AM EDT 8:02 PM EDT
Moon 3:59 AM EDT (10/12) 4:42 PM EDT (10/12)
Length of Visible Light 12h 12m
Length of Day
11h 20m
Waning Crescent, 11% of the Moon is Illuminated
Oct 12
Waning Crescent
Oct 15
New
Oct 21
First Quarter
Oct 29
Full
Nov 6
Last Quarter

Hourly Weather History & Observations

Time (EDT) Temp. Windchill Dew Point Humidity Pressure Visibility Wind Dir Wind Speed Gust Speed Precip Events Conditions
12:54 AM 43.0 °F - 41.0 °F 93% 30.22 in 10.0 mi Calm Calm - N/A   Clear
1:54 AM 43.0 °F - 41.0 °F 93% 30.20 in 10.0 mi Calm Calm - N/A   Clear
2:54 AM 43.0 °F 41.3 °F 42.1 °F 97% 30.18 in 7.0 mi SSE 3.5 mph - N/A   Clear
3:54 AM 45.0 °F 43.5 °F 43.0 °F 93% 30.17 in 10.0 mi South 3.5 mph - N/A   Clear
4:54 AM 46.9 °F - 44.1 °F 90% 30.16 in 10.0 mi Calm Calm - N/A   Clear
5:54 AM 44.1 °F - 42.1 °F 93% 30.17 in 7.0 mi Calm Calm - N/A   Clear
6:54 AM 42.1 °F - 41.0 °F 96% 30.17 in 6.0 mi Calm Calm - N/A   Clear
7:25 AM 41.0 °F - 39.2 °F 93% 30.18 in 1.5 mi Calm Calm - N/A   Clear
7:39 AM 41.0 °F - 39.2 °F 93% 30.19 in 3.0 mi Calm Calm - N/A   Clear
7:54 AM 42.1 °F - 41.0 °F 96% 30.20 in 4.0 mi Calm Calm - N/A   Clear
8:54 AM 48.9 °F - 45.0 °F 86% 30.22 in 8.0 mi WNW 4.6 mph - N/A   Clear
9:54 AM 55.0 °F - 46.0 °F 72% 30.22 in 10.0 mi Calm Calm - N/A   Clear
10:54 AM 62.1 °F - 44.1 °F 52% 30.22 in 10.0 mi Calm Calm - N/A   Clear
12:54 PM 68.0 °F - 41.0 °F 37% 30.22 in 10.0 mi Calm Calm - N/A   Clear
1:54 PM 70.0 °F - 39.0 °F 32% 30.20 in 10.0 mi Variable 3.5 mph - N/A   Clear
2:54 PM 71.1 °F - 37.9 °F 30% 30.19 in 10.0 mi Variable 4.6 mph - N/A   Clear
3:54 PM 70.0 °F - 39.0 °F 32% 30.21 in 10.0 mi Variable 4.6 mph - N/A   Clear
4:54 PM 69.1 °F - 39.0 °F 33% 30.23 in 10.0 mi North 8.1 mph - N/A   Clear
5:54 PM 63.0 °F - 41.0 °F 45% 30.26 in 10.0 mi North 6.9 mph - N/A   Clear
6:54 PM 57.9 °F - 41.0 °F 53% 30.31 in 10.0 mi North 8.1 mph - N/A   Clear
7:54 PM 54.0 °F - 37.9 °F 55% 30.36 in 10.0 mi Variable 6.9 mph - N/A   Clear
8:54 PM 52.0 °F - 36.0 °F 54% 30.38 in 10.0 mi Variable 3.5 mph - N/A   Clear
10:54 PM 44.1 °F - 37.0 °F 76% 30.42 in 10.0 mi Calm Calm - N/A   Clear
11:54 PM 42.1 °F - 37.0 °F 82% 30.43 in 10.0 mi Calm Calm - N/A   Clear